JST259 NZAA-NZWN

Flight info

Callsign JST259
Flight time 0h 47m
Altitude 34000
Route IGBAT Y506 TPAPA
Aircraft A320/M-SDE3FGHIRWY/LB1

Departure

Time 2026-05-07 05:32
Airport Auckland International Airport (NZAA)

Arrival

Time 2026-05-07 06:20
Airport Wellington International Airport (NZWN)
Time Latitude Longitude Altitude Speed Heading
2026-05-07 05:22 -37.00848 174.78842 28 ft 4 kts 50°
2026-05-07 05:22 -37.00865 174.78815 31 ft 4 kts 56°
2026-05-07 05:23 -37.00878 174.78786 28 ft 4 kts 68°
2026-05-07 05:23 -37.00881 174.78779 29 ft 1 kts 71°
2026-05-07 05:25 -37.00876 174.78796 30 ft 5 kts 71°
2026-05-07 05:25 -37.00876 174.78860 29 ft 10 kts 125°
2026-05-07 05:26 -37.00949 174.78849 27 ft 15 kts 240°
2026-05-07 05:26 -37.00979 174.78745 25 ft 13 kts 251°
2026-05-07 05:26 -37.01011 174.78630 28 ft 15 kts 251°
2026-05-07 05:26 -37.01046 174.78502 25 ft 16 kts 251°
2026-05-07 05:27 -37.01086 174.78360 27 ft 18 kts 251°
2026-05-07 05:27 -37.01128 174.78204 27 ft 20 kts 251°
2026-05-07 05:27 -37.01173 174.78035 26 ft 22 kts 252°
2026-05-07 05:27 -37.01223 174.77849 26 ft 23 kts 248°
2026-05-07 05:28 -37.01276 174.77670 26 ft 21 kts 250°
2026-05-07 05:28 -37.01329 174.77490 29 ft 23 kts 250°
2026-05-07 05:28 -37.01375 174.77311 26 ft 17 kts 252°
2026-05-07 05:28 -37.01414 174.77167 27 ft 18 kts 248°
2026-05-07 05:29 -37.01516 174.77096 29 ft 18 kts 193°
2026-05-07 05:29 -37.01616 174.77072 28 ft 11 kts 174°
2026-05-07 05:29 -37.01618 174.77115 26 ft 5 kts 71°
2026-05-07 05:29 -37.01607 174.77169 26 ft 4 kts 73°
2026-05-07 05:30 -37.01606 174.77170 26 ft 0 kts 73°
2026-05-07 05:31 -37.01582 174.77265 27 ft 40 kts 70°
2026-05-07 05:31 -37.01486 174.77604 26 ft 83 kts 71°
2026-05-07 05:31 -37.01238 174.78508 27 ft 134 kts 71°
2026-05-07 05:32 -37.00890 174.79718 318 ft 145 kts 68°
2026-05-07 05:32 -37.00616 174.80869 913 ft 143 kts 68°
2026-05-07 05:32 -37.00298 174.82164 1102 ft 165 kts 66°
2026-05-07 05:32 -36.99955 174.83517 1747 ft 163 kts 64°
2026-05-07 05:33 -36.99557 174.84905 2108 ft 179 kts 64°
2026-05-07 05:33 -36.99091 174.86469 2366 ft 203 kts 64°
2026-05-07 05:33 -36.98594 174.88169 2948 ft 211 kts 65°
2026-05-07 05:33 -36.98145 174.89912 3663 ft 218 kts 77°
2026-05-07 05:34 -36.98433 174.91833 4351 ft 235 kts 119°
2026-05-07 05:34 -36.99663 174.93202 5079 ft 243 kts 152°
2026-05-07 05:34 -37.01232 174.93944 5809 ft 246 kts 172°
2026-05-07 05:34 -37.02901 174.93726 6541 ft 243 kts 205°
2026-05-07 05:35 -37.04327 174.92657 7261 ft 238 kts 227°
2026-05-07 05:35 -37.05316 174.91032 7969 ft 234 kts 250°
2026-05-07 05:35 -37.05942 174.89072 8378 ft 252 kts 254°
2026-05-07 05:35 -37.06546 174.86901 8739 ft 273 kts 255°
2026-05-07 05:36 -37.07162 174.84609 9409 ft 281 kts 255°
2026-05-07 05:36 -37.07793 174.82269 10160 ft 286 kts 255°
2026-05-07 05:36 -37.08450 174.79832 10451 ft 307 kts 254°
2026-05-07 05:36 -37.09160 174.77206 10657 ft 328 kts 254°
2026-05-07 05:37 -37.10026 174.74522 11193 ft 339 kts 240°
2026-05-07 05:37 -37.11703 174.72409 11820 ft 351 kts 213°
2026-05-07 05:37 -37.14003 174.71329 12506 ft 359 kts 194°
2026-05-07 05:37 -37.16476 174.70960 13199 ft 364 kts 185°
2026-05-07 05:38 -37.19052 174.70869 13910 ft 367 kts 183°
2026-05-07 05:38 -37.21579 174.70784 14507 ft 369 kts 185°
2026-05-07 05:38 -37.24154 174.70573 15087 ft 371 kts 188°
2026-05-07 05:38 -37.26735 174.70208 15667 ft 374 kts 190°
2026-05-07 05:39 -37.29313 174.69725 16232 ft 376 kts 192°
2026-05-07 05:39 -37.31904 174.69170 16794 ft 379 kts 193°
2026-05-07 05:39 -37.34516 174.68591 17372 ft 383 kts 193°
2026-05-07 05:39 -37.37152 174.68011 17948 ft 386 kts 193°
2026-05-07 05:40 -37.39812 174.67435 18518 ft 389 kts 193°
2026-05-07 05:40 -37.42496 174.66866 19023 ft 393 kts 192°
2026-05-07 05:40 -37.45210 174.66300 19528 ft 397 kts 192°
2026-05-07 05:40 -37.47949 174.65739 20035 ft 401 kts 192°
2026-05-07 05:41 -37.50716 174.65177 20541 ft 405 kts 192°
2026-05-07 05:41 -37.53510 174.64609 21043 ft 409 kts 192°
2026-05-07 05:41 -37.56330 174.64032 21533 ft 412 kts 192°
2026-05-07 05:41 -37.59159 174.63373 22018 ft 415 kts 194°
2026-05-07 05:42 -37.61985 174.62566 22491 ft 418 kts 197°
2026-05-07 05:42 -37.64816 174.61662 22959 ft 421 kts 198°
2026-05-07 05:42 -37.67663 174.60712 23422 ft 424 kts 198°
2026-05-07 05:42 -37.70498 174.59764 23850 ft 428 kts 198°
2026-05-07 05:43 -37.73388 174.58817 24231 ft 431 kts 197°
2026-05-07 05:43 -37.76307 174.57886 24618 ft 433 kts 197°
2026-05-07 05:43 -37.79248 174.56965 25002 ft 436 kts 197°
2026-05-07 05:43 -37.82198 174.56047 25376 ft 438 kts 197°
2026-05-07 05:44 -37.85169 174.55125 25746 ft 441 kts 197°
2026-05-07 05:44 -37.88156 174.54197 26109 ft 443 kts 197°
2026-05-07 05:44 -37.91160 174.53259 26467 ft 445 kts 197°
2026-05-07 05:44 -37.94173 174.52317 26816 ft 448 kts 197°
2026-05-07 05:45 -37.97174 174.51398 27154 ft 451 kts 194°
2026-05-07 05:45 -38.00295 174.50845 27485 ft 455 kts 188°
2026-05-07 05:45 -38.03464 174.50407 27830 ft 458 kts 188°
2026-05-07 05:45 -38.06634 174.49970 28165 ft 460 kts 188°
2026-05-07 05:46 -38.09824 174.49531 28503 ft 462 kts 188°
2026-05-07 05:46 -38.13032 174.49090 28836 ft 465 kts 188°
2026-05-07 05:46 -38.16259 174.48644 29164 ft 467 kts 188°
2026-05-07 05:46 -38.19501 174.48195 29492 ft 470 kts 188°
2026-05-07 05:47 -38.22759 174.47741 29807 ft 472 kts 188°
2026-05-07 05:47 -38.26029 174.47283 30168 ft 473 kts 188°
2026-05-07 05:47 -38.29295 174.46827 30579 ft 472 kts 188°
2026-05-07 05:47 -38.32563 174.46369 30998 ft 470 kts 189°
2026-05-07 05:48 -38.35807 174.45915 31424 ft 468 kts 189°
2026-05-07 05:48 -38.39045 174.45461 31852 ft 467 kts 189°
2026-05-07 05:48 -38.42266 174.45008 32285 ft 465 kts 189°
2026-05-07 05:48 -38.45473 174.44558 32725 ft 463 kts 189°
2026-05-07 05:49 -38.48676 174.44113 33168 ft 461 kts 189°
2026-05-07 05:49 -38.51863 174.43670 33612 ft 460 kts 189°
2026-05-07 05:49 -38.55036 174.43229 34039 ft 459 kts 190°
2026-05-07 05:49 -38.58204 174.42786 34164 ft 459 kts 190°
2026-05-07 05:50 -38.61350 174.42342 34187 ft 461 kts 190°
2026-05-07 05:50 -38.67734 174.41438 34177 ft 462 kts 190°
2026-05-07 05:51 -38.74125 174.40535 34176 ft 462 kts 190°
2026-05-07 05:51 -38.80518 174.39637 34189 ft 462 kts 190°
2026-05-07 05:52 -38.86912 174.38731 34186 ft 462 kts 190°
2026-05-07 05:52 -38.93305 174.37829 34177 ft 462 kts 190°
2026-05-07 05:53 -38.99716 174.36919 34180 ft 463 kts 190°
2026-05-07 05:53 -39.06123 174.36079 34181 ft 465 kts 185°
2026-05-07 05:54 -39.12625 174.36364 34178 ft 468 kts 181°
2026-05-07 05:54 -39.19094 174.36742 34173 ft 468 kts 181°
2026-05-07 05:55 -39.25610 174.37121 34171 ft 469 kts 181°
2026-05-07 05:55 -39.32133 174.37496 34160 ft 469 kts 181°
2026-05-07 05:56 -39.38662 174.37873 34155 ft 470 kts 182°
2026-05-07 05:56 -39.45190 174.38246 34154 ft 470 kts 182°
2026-05-07 05:57 -39.51721 174.38625 34151 ft 470 kts 182°
2026-05-07 05:57 -39.58255 174.39006 34148 ft 470 kts 182°
2026-05-07 05:58 -39.64784 174.39387 34146 ft 470 kts 182°
2026-05-07 05:58 -39.71312 174.39765 34139 ft 469 kts 182°
2026-05-07 05:59 -39.77838 174.40145 34135 ft 469 kts 182°
2026-05-07 05:59 -39.84369 174.40531 34135 ft 469 kts 182°
2026-05-07 06:00 -39.90847 174.40911 34147 ft 468 kts 182°
2026-05-07 06:00 -39.97360 174.41298 32909 ft 476 kts 182°
2026-05-07 06:00 -40.00709 174.41486 31837 ft 485 kts 181°
2026-05-07 06:01 -40.04091 174.41677 31057 ft 486 kts 181°
2026-05-07 06:01 -40.07464 174.41873 30402 ft 485 kts 181°
2026-05-07 06:01 -40.10830 174.42075 29729 ft 482 kts 181°
2026-05-07 06:01 -40.14169 174.42277 29064 ft 479 kts 181°
2026-05-07 06:02 -40.17481 174.42473 28439 ft 475 kts 181°
2026-05-07 06:02 -40.20770 174.42670 27827 ft 471 kts 181°
2026-05-07 06:02 -40.24028 174.42866 27249 ft 467 kts 181°
2026-05-07 06:02 -40.27263 174.43061 26672 ft 463 kts 181°
2026-05-07 06:03 -40.30468 174.43253 26110 ft 460 kts 181°
2026-05-07 06:03 -40.33658 174.43444 25543 ft 455 kts 181°
2026-05-07 06:03 -40.36802 174.43633 24751 ft 450 kts 181°
2026-05-07 06:03 -40.39916 174.43819 24109 ft 444 kts 181°
2026-05-07 06:04 -40.42927 174.44002 23633 ft 434 kts 181°
2026-05-07 06:04 -40.45916 174.44185 23099 ft 426 kts 181°
2026-05-07 06:04 -40.48847 174.44364 22626 ft 416 kts 181°
2026-05-07 06:04 -40.51711 174.44536 22144 ft 407 kts 182°
2026-05-07 06:05 -40.54515 174.44700 21658 ft 399 kts 182°
2026-05-07 06:05 -40.57254 174.44861 21182 ft 390 kts 182°
2026-05-07 06:05 -40.59943 174.45020 20705 ft 383 kts 182°
2026-05-07 06:05 -40.62584 174.45177 20228 ft 377 kts 182°
2026-05-07 06:06 -40.65211 174.45332 19748 ft 377 kts 182°
2026-05-07 06:06 -40.67835 174.45485 19283 ft 378 kts 182°
2026-05-07 06:06 -40.70465 174.45644 18831 ft 378 kts 181°
2026-05-07 06:06 -40.73094 174.45932 18370 ft 380 kts 178°
2026-05-07 06:07 -40.75731 174.46363 17865 ft 380 kts 176°
2026-05-07 06:07 -40.78341 174.46867 17401 ft 379 kts 176°
2026-05-07 06:07 -40.80913 174.47385 16949 ft 377 kts 176°
2026-05-07 06:07 -40.83503 174.47895 16487 ft 376 kts 176°
2026-05-07 06:08 -40.86089 174.48388 16032 ft 374 kts 176°
2026-05-07 06:08 -40.88661 174.48862 15584 ft 373 kts 176°
2026-05-07 06:08 -40.91226 174.49318 15122 ft 371 kts 177°
2026-05-07 06:08 -40.93785 174.49764 14666 ft 370 kts 177°
2026-05-07 06:09 -40.96340 174.50211 14213 ft 369 kts 177°
2026-05-07 06:09 -40.98891 174.50658 13743 ft 368 kts 177°
2026-05-07 06:09 -41.01424 174.51103 13267 ft 366 kts 177°
2026-05-07 06:09 -41.03939 174.51547 12768 ft 365 kts 177°
2026-05-07 06:10 -41.06453 174.51993 12306 ft 363 kts 177°
2026-05-07 06:10 -41.08948 174.52450 11870 ft 361 kts 176°
2026-05-07 06:10 -41.11430 174.52955 11432 ft 359 kts 175°
2026-05-07 06:10 -41.13891 174.53489 11004 ft 358 kts 175°
2026-05-07 06:11 -41.16316 174.54030 10570 ft 357 kts 175°
2026-05-07 06:11 -41.18755 174.54576 10263 ft 352 kts 175°
2026-05-07 06:11 -41.21133 174.55104 10155 ft 341 kts 175°
2026-05-07 06:11 -41.23438 174.55612 10024 ft 331 kts 176°
2026-05-07 06:12 -41.25696 174.56101 9721 ft 328 kts 176°
2026-05-07 06:12 -41.27952 174.56586 9318 ft 328 kts 176°
2026-05-07 06:12 -41.30173 174.57304 8968 ft 331 kts 163°
2026-05-07 06:12 -41.32297 174.58506 8616 ft 331 kts 159°
2026-05-07 06:13 -41.34409 174.59732 8252 ft 331 kts 159°
2026-05-07 06:13 -41.36507 174.60952 8034 ft 325 kts 160°
2026-05-07 06:13 -41.38555 174.62146 7906 ft 316 kts 160°
2026-05-07 06:13 -41.40532 174.63295 7749 ft 302 kts 160°
2026-05-07 06:14 -41.42433 174.64398 7388 ft 295 kts 160°
2026-05-07 06:14 -41.44309 174.65487 6948 ft 293 kts 160°
2026-05-07 06:14 -41.46174 174.66570 6471 ft 292 kts 160°
2026-05-07 06:14 -41.47875 174.67959 6018 ft 291 kts 136°
2026-05-07 06:15 -41.49086 174.70119 5518 ft 285 kts 110°
2026-05-07 06:15 -41.49587 174.72571 5033 ft 272 kts 86°
2026-05-07 06:15 -41.49680 174.75073 4470 ft 271 kts 83°
2026-05-07 06:15 -41.49385 174.77452 3857 ft 248 kts 51°
2026-05-07 06:16 -41.48353 174.79069 3428 ft 217 kts 21°
2026-05-07 06:16 -41.47031 174.79714 3034 ft 191 kts 356°
2026-05-07 06:16 -41.45764 174.79787 2760 ft 180 kts 355°
2026-05-07 06:16 -41.44518 174.79869 2304 ft 177 kts 357°
2026-05-07 06:17 -41.43318 174.79957 2035 ft 166 kts 357°
2026-05-07 06:17 -41.42222 174.80038 2048 ft 149 kts 356°
2026-05-07 06:17 -41.41232 174.80110 2028 ft 137 kts 356°
2026-05-07 06:17 -41.40296 174.80176 1984 ft 133 kts 356°
2026-05-07 06:18 -41.39394 174.80235 1806 ft 126 kts 356°
2026-05-07 06:18 -41.38572 174.80294 1641 ft 112 kts 356°
2026-05-07 06:18 -41.37714 174.80346 1457 ft 129 kts 356°
2026-05-07 06:18 -41.36862 174.80402 1219 ft 115 kts 356°
2026-05-07 06:19 -41.36345 174.80440 1060 ft 110 kts 359°
2026-05-07 06:19 -41.35567 174.80457 594 ft 111 kts 356°
2026-05-07 06:19 -41.34833 174.80493 387 ft 99 kts
2026-05-07 06:19 -41.34151 174.80563 65 ft 95 kts
2026-05-07 06:20 -41.33655 174.80566 24 ft 7 kts 354°
2026-05-07 06:20 -41.33674 174.80570 10 ft 0 kts 354°
2026-05-07 06:20 -41.33671 174.80570 10 ft 0 kts 358°
2026-05-07 06:20 -41.33673 174.80570 10 ft 1 kts 360°
2026-05-07 06:21 -41.33672 174.80570 10 ft 1 kts
2026-05-07 06:21 -41.33673 174.80570 10 ft 0 kts